CZ-6A DEB

Satellite information

Favourite Embed

Satellite Type and Status

DEBRISIN ORBIT

Key statistics

Satellite CZ-6A DEB at a glance.

Uptime

1024

Days in orbit

Revolutions

≈ 14.7

Per day

Orbit

SSO

Sun Synchronous Orbit

Inclination

98.6

Latest

Satellite identification and parameters

Extended collection of information and parameters for CZ-6A DEB.

Object identification

Identified? True

Debris? True

Object name: CZ-6A DEB

International designator: 2022-151JV

Object number (NORAD): 54517

Object ID (CCSDS): 54517

Country: PEOPLES REPUBLIC OF CHINA (PRC)

Current information (Y/N): Y

RCS size: SMALL

Orbital parameters

Period: 98.234 minutes

Inclination: 98.6494 deg

SMA: 7052.385 km

Apoapsis: 732.97 km

Periapsis: 615.531 km

RAAN: 291.4923 deg

Eccentricy: 0.00832614

Argument of periapsis: 100.3063 deg

Mean anomaly: 260.7539 deg

Mean motion: 14.65880977 rev/day

Mean motion (dot): 0.0002621 rev/day2

B* drag term: 0.0045497408 1/REarth

Two-line elements (TLE)

Creation date: Aug. 31, 2025, 2:26 a.m.

Reference frame: TEME

Reference center: EARTH

Epoch: Aug. 30, 2025, 10:24 p.m. UTC

TLE line 0: 0 CZ-6A DEB

TLE line 1: 1 54517U 22151JV 25242.93345376 .00026210 00000-0 45497-2 0 9990

TLE line 2: 2 54517 98.6494 291.4923 0083261 100.3063 260.7539 14.65880977147792

Live tracking on map

Real-time ground track for satellite CZ-6A DEB.

In-orbit conjunctions

A list of the most updated potential collisions computed for object CZ-6A DEB.

Target Orbit TCA Probability of collision Miss distance Type
ATLAS 28E R/B LEO 2025-06-09 06:30:49 0.0001468164 342.0 (m) ROCKET BODY
RUBIN 8/PSLV SSO 2025-03-08 18:41:14 0.001326939 413.0 (m) PAYLOAD
IRIDIUM 33 DEB LEO 2024-12-24 12:24:05 0.0002551066 83.0 (m) DEBRIS
FENGYUN 1C DEB SSO 2024-11-12 08:22:48 0.0003618896 348.0 (m) DEBRIS

Associated space launch

Chinese satellite reported for atmospheric/ocean/environmental/spatial parameter research purposes, details TBD.

CZ-6A DEB was lifted into orbit during the mission ‘Long March 6A | Yunhai 3’, on board a Long March 6A space rocket.

The launch took place on Nov. 11, 2022, 10:52 p.m. from Launch Complex 9A.

For more information about the launch, click the button.

Launch to space Long March 6A | Yunhai 3
Long March 6A | Yunhai 3

Agency: N/A

Status: Launch Successful

Launch date: Nov. 11, 2022, 10:52 p.m. UTC

Rocket: Long March 6A

Launch pad: Launch Complex 9A

Location: Taiyuan Satellite Launch Center, People's Republic of China

...

Latest news about this satellite

There are no fresh news available about this satellite. Check back as we update our databases every day.


Newsletter sign-up

Weekly statistics, charts and insights to help you stay on top of the space industry.